TimeCDT,TemperatureF,Dew PointF,Humidity,Sea Level PressureIn,VisibilityMPH,Wind Direction,Wind SpeedMPH,Gust SpeedMPH,PrecipitationIn,Events,Conditions,WindDirDegrees,DateUTC
12:53 AM,48.9,46.9,93,30.08,2.5,Calm,Calm,-,N/A,,Clear,0,2013-05-11 05:53:00
1:00 AM,50.0,48.2,94,30.09,3.0,Calm,Calm,-,N/A,,Clear,0,2013-05-11 06:00:00
1:08 AM,46.4,46.4,100,30.09,1.8,Calm,Calm,-,N/A,,Clear,0,2013-05-11 06:08:00
1:17 AM,46.4,46.4,100,30.09,3.0,Calm,Calm,-,N/A,,Clear,0,2013-05-11 06:17:00
1:53 AM,48.0,46.9,96,30.08,1.8,Calm,Calm,-,N/A,,Clear,0,2013-05-11 06:53:00
2:04 AM,46.4,46.4,100,30.09,0.5,Calm,Calm,-,N/A,Fog,Fog,0,2013-05-11 07:04:00
2:13 AM,46.4,46.4,100,30.09,1.0,South,3.5,-,N/A,,Clear,190,2013-05-11 07:13:00
2:16 AM,46.4,46.4,100,30.09,4.0,South,3.5,-,N/A,,Clear,190,2013-05-11 07:16:00
2:53 AM,48.0,46.0,93,30.09,5.0,Calm,Calm,-,N/A,,Clear,0,2013-05-11 07:53:00
3:09 AM,46.4,44.6,93,30.10,2.5,South,4.6,-,N/A,,Clear,180,2013-05-11 08:09:00
3:26 AM,46.4,46.4,100,30.09,4.0,South,3.5,-,N/A,,Clear,190,2013-05-11 08:26:00
3:53 AM,46.9,46.9,100,30.08,2.5,South,3.5,-,N/A,,Clear,180,2013-05-11 08:53:00
4:07 AM,46.4,46.4,100,30.08,1.2,South,3.5,-,N/A,,Clear,190,2013-05-11 09:07:00
4:15 AM,46.4,46.4,100,30.09,4.0,South,3.5,-,N/A,,Clear,190,2013-05-11 09:15:00
4:53 AM,46.0,45.0,96,30.08,4.0,SSW,3.5,-,N/A,,Clear,200,2013-05-11 09:53:00
5:53 AM,46.0,45.0,96,30.08,7.0,Calm,Calm,-,0.01,Fog,Patches of Fog,0,2013-05-11 10:53:00
6:53 AM,46.0,45.0,96,30.10,10.0,SW,3.5,-,N/A,,Clear,230,2013-05-11 11:53:00
7:53 AM,54.0,52.0,93,30.11,10.0,West,5.8,-,N/A,,Clear,270,2013-05-11 12:53:00
8:53 AM,59.0,52.0,78,30.12,10.0,NW,5.8,-,N/A,,Clear,310,2013-05-11 13:53:00
9:53 AM,64.0,53.1,67,30.12,10.0,NW,8.1,-,N/A,,Clear,310,2013-05-11 14:53:00
10:53 AM,68.0,53.1,59,30.12,10.0,WNW,9.2,-,N/A,,Clear,300,2013-05-11 15:53:00
11:53 AM,70.0,53.1,55,30.12,10.0,NW,11.5,21.9,N/A,,Clear,320,2013-05-11 16:53:00
12:53 PM,71.1,55.0,57,30.13,10.0,NW,16.1,19.6,N/A,,Mostly Cloudy,310,2013-05-11 17:53:00
1:53 PM,69.1,48.9,49,30.15,10.0,North,17.3,25.3,N/A,,Partly Cloudy,360,2013-05-11 18:53:00
2:53 PM,68.0,44.1,42,30.16,10.0,North,11.5,24.2,N/A,,Clear,10,2013-05-11 19:53:00
3:53 PM,68.0,39.0,35,30.15,10.0,North,13.8,23.0,N/A,,Clear,360,2013-05-11 20:53:00
4:53 PM,68.0,39.0,35,30.16,10.0,North,15.0,20.7,N/A,,Clear,350,2013-05-11 21:53:00
5:53 PM,66.0,37.0,34,30.17,10.0,NNW,13.8,-,N/A,,Clear,330,2013-05-11 22:53:00
6:53 PM,64.0,36.0,35,30.17,10.0,NNW,16.1,-,N/A,,Clear,340,2013-05-11 23:53:00
7:53 PM,57.9,35.1,42,30.18,10.0,North,9.2,-,N/A,,Clear,350,2013-05-12 00:53:00
8:53 PM,55.4,33.8,44,30.20,10.0,NNW,4.6,-,N/A,,Clear,340,2013-05-12 01:53:00
9:53 PM,54.0,34.0,47,30.21,10.0,Calm,Calm,-,N/A,,Clear,0,2013-05-12 02:53:00
10:53 PM,52.0,37.0,57,30.21,10.0,Calm,Calm,-,N/A,,Clear,0,2013-05-12 03:53:00
11:53 PM,48.0,35.1,61,30.23,10.0,North,6.9,-,N/A,,Clear,350,2013-05-12 04:53:00